Regional Weather Roundup
Issued by NWS

Home | Current Version | Previous Version | Text Only | Print | Product List | Glossary Off
Versions: 1 2 3 4 5 6 7 8 9 10 11 12 13 14 15 16 17 18 19 20 21 22 23 24 25 26 27 28 29 30 31 32 33 34 35 36 37 38 39 40 41 42 43 44 45 46 47 48 49 50

000
ASUS45 KBOU 281607
RWRCO

WEATHER ROUNDUP FOR COLORADO
NATIONAL WEATHER SERVICE DENVER/BOULDER CO
1000 AM MDT THU MAY 28 2015

NOTE: "FAIR" INDICATES FEW OR NO CLOUDS BELOW 12000 FEET WITH NO
SIGNIFICANT WEATHER AND/OR OBSTRUCTIONS TO VISIBILITY.

COZ001>005-013-030-031-281700-
...NORTHWEST COLORADO...

CITY           SKY/WX    TMP DP  RH WIND       PRES   REMARKS
CRAIG          PTSUNNY   56  41  57 VRB3      30.18S
HAYDEN         MOSUNNY   54  39  58 W3        30.19S
MEEKER         MOSUNNY   56  43  61 E5        30.19S
MOUNT WERNER   NOT AVBL
STEAMBOAT SPGS CLOUDY    50  40  68 SW5       30.19F
WALDEN         CLOUDY    50  39  66 SW13      30.21F
$$

COZ006>008-011-281700-
...WEST CENTRAL VALLEYS...

CITY           SKY/WX    TMP DP  RH WIND       PRES   REMARKS
GRAND JUNCTION SUNNY     61  46  57 MISG      30.13F
MONTROSE       SUNNY     61  43  51 CALM      30.18S
EAGLE          MOSUNNY   54  45  71 CALM      30.21F
RIFLE          SUNNY     56  47  71 CALM      30.16F
DELTA          SUNNY     63  45  51 CALM      30.16F
NUCLA          SUNNY     61  41  48 CALM      30.21S
$$

COZ017>023-064>068-281700-
...SOUTHWEST COLORADO...

CITY           SKY/WX    TMP DP  RH WIND       PRES   REMARKS
DURANGO        SUNNY     63  39  41 CALM      30.18F
CORTEZ         SUNNY     66  39  37 E5        30.15F
PAGOSA SPRINGS SUNNY     60  30  32 S3        30.23F
TELLURIDE      PTSUNNY   52  37  55 W7        30.31S
WOLF CREEK PAS NOT AVBL
$$

COZ009-010-012-014-032>034-037-058>063-281700-
...CENTRAL COLORADO...

CITY           SKY/WX    TMP DP  RH WIND       PRES   REMARKS
ASPEN          MOSUNNY   53  39  59 CALM      30.21F
BUENA VISTA    PTSUNNY   55  34  44 CALM      30.21F
COPPER MTN     CLOUDY    41  30  65 SW10G29   30.38S
BERTHOUD PASS  PTSUNNY   32  27  80 W18G26    30.39F WCI  20
COTTONWOOD PAS PTSUNNY   50  34  53 SE8       30.29F
GUNNISON       MOSUNNY   48  37  66 CALM      30.27F
KREMMLING      PTSUNNY   52  37  58 N5        30.22F
LEADVILLE      CLOUDY    46  28  49 CALM      30.27F
MONARCH PASS   MOSUNNY   37  28  70 W28G36    30.50S
SALIDA         PTSUNNY   58  38  47 CALM      30.25F
SUNLIGHT       CLOUDY    41  37  87 CALM      30.37F
WILKERSON PASS MOSUNNY   45  32  61 SW6       30.38F
$$

COZ069>075-281700-
...SAN LUIS VALLEY/SANGRE DE CRISTO MOUNTAINS...

CITY           SKY/WX    TMP DP  RH WIND       PRES   REMARKS
ALAMOSA        MOSUNNY   61  36  39 CALM      30.20F
LA VETA PASS   PTSUNNY  N/A N/A N/A MISG      30.33S
SAGUACHE       MOSUNNY   55  37  50 S7        30.23S
$$

COZ035-036-038>040-281700-
...NORTHERN COLORADO FRONT RANGE...

CITY           SKY/WX    TMP DP  RH WIND       PRES   REMARKS
DENVER INTL AP PTSUNNY   66  49  54 W6        30.06F
DMNS CITY PARK   N/A     65  46  49 SE1G7     30.05F
AURORA         PTSUNNY   63  49  60 NE5       30.08F
FRONT RANGE AP PTSUNNY   66  50  55 NW8       30.07F
ERIE MUNI ARPT PTSUNNY   67  50  53 E3        30.04F
BOULDER MUN AP PTSUNNY   64  48  55 NE7       30.04F
CENTENNIAL     PTSUNNY   64  47  53 VRB3      30.08F
BROOMFIELD     PTSUNNY   64  46  52 VRB3      30.07
FORT COLLINS   MOSUNNY   66  46  48 CALM      30.04F
LONGMONT       MOSUNNY   69  48  48 S5        30.05F
$$

COZ041-046-047-076>085-087-088-281700-
...PIKES PEAK/PALMER DIVIDE AND SOUTHERN FOOTHILLS...

CITY           SKY/WX    TMP DP  RH WIND       PRES   REMARKS
COLO. SPRINGS  PTSUNNY   67  40  37 CALM      30.09F
A. F. ACADEMY  PTSUNNY   66  40  39 S7        30.10F
ELLICOTT       NOT AVBL
FALCON         PTSUNNY   67  35  31 S6        30.14F
FORT CARSON    PTSUNNY   66  44  45 S6        30.07F
LIMON          SUNNY     68  47  46 N6        30.05F
MONUMENT HILL  MOSUNNY   66  32  28 SE13      30.13F
TRINIDAD       CLOUDY    64  47  53 W7        30.08S
$$

COZ042>045-048>051-090-091-281700-
...NORTHEAST COLORADO...

CITY           SKY/WX    TMP DP  RH WIND       PRES   REMARKS
GREELEY ARPT   SUNNY     66  55  68 NW5       30.03F
AKRON          SUNNY     66  55  67 NW10      30.03S
BURLINGTON     PTSUNNY   68  57  68 VRB7      30.02F
WRAY           CLOUDY    68  56  65 S3        30.00S
STERLING       SUNNY     66  55  68 N5        30.00F
HOLYOKE        CLOUDY    66  55  68 N3        30.00S
FORT MORGAN    SUNNY     65  54  68 CALM      30.03F
$$

COZ086-089-092>099-281700-
...SOUTHEAST COLORADO...

CITY           SKY/WX    TMP DP  RH WIND       PRES   REMARKS
PUEBLO         MOSUNNY   66  51  58 N3        30.03F
LA JUNTA       SUNNY     68  54  60 NW9       30.00F
LAMAR          MOSUNNY   73  54  51 SW12      29.97F
SPRINGFIELD    NOT AVBL
$$


USA.gov is the U.S. government's official web portal to all federal, state and local government web resources and services.